| time (UTC) | temp C | wind direction | speed KPH | gust KPH | rain 1hr cm | rain 24hr cm | rain mn cm | humidity % | barometer mb |
| 20260504215029 | 9 | 0 | 0.0 | 0.0 | 0.00 | 0.64 | 0.00 | 92 | 1016.1 |
| 20260504214539 | 9 | 0 | 0.0 | 0.0 | 0.00 | 0.64 | 0.00 | 92 | 1016.2 |
| 20260504214026 | 9 | 0 | 0.0 | 0.0 | 0.00 | 0.64 | 0.00 | 92 | 1016.2 |
| 20260504213528 | 9 | 0 | 0.0 | 0.0 | 0.00 | 0.64 | 0.00 | 92 | 1016.2 |
| 20260504213058 | 10 | 0 | 0.0 | 0.0 | 0.00 | 0.64 | 0.00 | 92 | 1016.2 |
| 20260504212527 | 10 | 0 | 0.0 | 0.0 | 0.00 | 0.64 | 0.00 | 91 | 1016.4 |
| 20260504212030 | 10 | 0 | 0.0 | 0.0 | 0.00 | 0.64 | 0.00 | 91 | 1016.4 |
| 20260504211544 | 10 | 0 | 0.0 | 0.0 | 0.00 | 0.64 | 0.00 | 91 | 1016.3 |
| 20260504211029 | 10 | 0 | 0.0 | 0.0 | 0.00 | 0.64 | 0.00 | 91 | 1016.4 |
| 20260504210530 | 10 | 0 | 0.0 | 0.0 | 0.00 | 0.64 | 0.00 | 91 | 1016.4 |
| 20260504210041 | 10 | 0 | 0.0 | 0.0 | 0.00 | 0.64 | 0.00 | 91 | 1016.4 |
| 20260504205530 | 10 | 0 | 0.0 | 0.0 | 0.00 | 0.74 | 0.00 | 91 | 1016.4 |
| 20260504205028 | 10 | 0 | 0.0 | 0.0 | 0.00 | 0.74 | 0.00 | 91 | 1016.5 |
| 20260504204541 | 10 | 0 | 0.0 | 0.0 | 0.00 | 0.74 | 0.00 | 91 | 1016.5 |
| 20260504204028 | 10 | 0 | 0.0 | 0.0 | 0.00 | 0.74 | 0.00 | 91 | 1016.5 |
| 20260504203528 | 10 | 0 | 0.0 | 0.0 | 0.00 | 0.74 | 0.00 | 91 | 1016.6 |
| 20260504203038 | 10 | 0 | 0.0 | 0.0 | 0.00 | 0.74 | 0.00 | 91 | 1016.6 |
| 20260504202530 | 10 | 0 | 0.0 | 0.0 | 0.00 | 0.74 | 0.00 | 91 | 1016.6 |
| 20260504202026 | 10 | 0 | 0.0 | 0.0 | 0.00 | 0.74 | 0.00 | 91 | 1016.6 |
| 20260504201542 | 10 | 0 | 0.0 | 0.0 | 0.00 | 0.74 | 0.00 | 91 | 1016.6 |
| 20260504201029 | 10 | 0 | 0.0 | 0.0 | 0.00 | 0.74 | 0.00 | 91 | 1016.7 |
| 20260504200526 | 10 | 0 | 0.0 | 0.0 | 0.00 | 0.74 | 0.00 | 91 | 1016.8 |
| 20260504200041 | 11 | 0 | 0.0 | 0.0 | 0.00 | 0.74 | 0.00 | 91 | 1016.8 |
| 20260504195528 | 11 | 0 | 0.0 | 0.0 | 0.00 | 0.74 | 0.00 | 91 | 1016.9 |
| 20260504195027 | 11 | 0 | 0.0 | 0.0 | 0.00 | 0.74 | 0.00 | 91 | 1017.0 |
| 20260504194540 | 11 | 0 | 0.0 | 0.0 | 0.00 | 0.74 | 0.00 | 91 | 1017.1 |
| 20260504194029 | 11 | 0 | 0.0 | 0.0 | 0.00 | 0.74 | 0.00 | 91 | 1017.1 |
| 20260504193528 | 11 | 0 | 0.0 | 0.0 | 0.00 | 0.74 | 0.00 | 91 | 1017.2 |
| 20260504193058 | 11 | 0 | 0.0 | 0.0 | 0.00 | 0.74 | 0.00 | 91 | 1017.2 |
| 20260504192529 | 11 | 0 | 0.0 | 0.0 | 0.00 | 0.74 | 0.00 | 91 | 1017.2 |
| 20260504192029 | 11 | 0 | 0.0 | 0.0 | 0.00 | 0.74 | 0.00 | 91 | 1017.4 |
| 20260504191538 | 11 | 0 | 0.0 | 0.0 | 0.00 | 0.74 | 0.00 | 91 | 1017.4 |
| 20260504191028 | 11 | 0 | 0.0 | 0.0 | 0.00 | 0.74 | 0.00 | 91 | 1017.4 |
| 20260504190533 | 11 | 0 | 0.0 | 0.0 | 0.00 | 0.74 | 0.00 | 91 | 1017.4 |
| 20260504190049 | 11 | 0 | 0.0 | 0.0 | 0.00 | 0.74 | 0.00 | 90 | 1017.5 |
| 20260504185529 | 11 | 0 | 0.0 | 0.0 | 0.00 | 0.74 | 0.00 | 90 | 1017.6 |
| 20260504185030 | 12 | 0 | 0.0 | 0.0 | 0.00 | 0.74 | 0.00 | 90 | 1017.6 |
| 20260504184544 | 12 | 0 | 0.0 | 0.0 | 0.00 | 0.74 | 0.00 | 90 | 1017.7 |
| 20260504184031 | 12 | 0 | 0.0 | 0.0 | 0.00 | 0.74 | 0.00 | 91 | 1017.7 |
| 20260504183606 | 12 | 0 | 0.0 | 0.0 | 0.00 | 0.74 | 0.00 | 90 | 1017.7 |
| 20260504183054 | 12 | 0 | 0.0 | 0.0 | 0.00 | 0.74 | 0.00 | 91 | 1017.7 |
| 20260504182528 | 12 | 0 | 0.0 | 0.0 | 0.00 | 0.74 | 0.00 | 90 | 1017.8 |
| 20260504182030 | 12 | 0 | 0.0 | 0.0 | 0.00 | 0.74 | 0.00 | 91 | 1017.7 |
| 20260504181543 | 12 | 0 | 0.0 | 0.0 | 0.00 | 0.74 | 0.00 | 91 | 1017.6 |
| 20260504181030 | 12 | 0 | 0.0 | 0.0 | 0.00 | 0.74 | 0.00 | 91 | 1017.6 |
| 20260504180527 | 12 | 0 | 0.0 | 0.0 | 0.00 | 0.74 | 0.00 | 90 | 1017.6 |
| 20260504180112 | 13 | 0 | 0.0 | 0.0 | 0.00 | 0.74 | 0.00 | 90 | 1017.7 |
| 20260504175529 | 13 | 0 | 0.0 | 0.0 | 0.00 | 0.81 | 0.74 | 90 | 1017.8 |
| 20260504175030 | 13 | 0 | 0.0 | 0.0 | 0.00 | 0.81 | 0.74 | 90 | 1017.8 |
| 20260504174538 | 13 | 0 | 0.0 | 1.6 | 0.00 | 0.81 | 0.74 | 90 | 1017.7 |
| 20260504174027 | 13 | 0 | 0.0 | 3.2 | 0.00 | 0.81 | 0.74 | 90 | 1017.7 |
| 20260504173532 | 13 | 0 | 0.0 | 3.2 | 0.00 | 0.81 | 0.74 | 90 | 1017.7 |
| 20260504173039 | 13 | 0 | 0.0 | 3.2 | 0.00 | 0.81 | 0.74 | 90 | 1017.6 |
| 20260504172529 | 13 | 0 | 0.0 | 0.0 | 0.00 | 0.81 | 0.74 | 90 | 1017.5 |
| 20260504172029 | 13 | 0 | 0.0 | 0.0 | 0.00 | 0.81 | 0.74 | 90 | 1017.5 |
| 20260504171541 | 13 | 0 | 0.0 | 0.0 | 0.00 | 0.81 | 0.74 | 90 | 1017.6 |
| 20260504171033 | 13 | 0 | 0.0 | 0.0 | 0.00 | 0.81 | 0.74 | 90 | 1017.6 |
| 20260504170530 | 13 | 0 | 0.0 | 0.0 | 0.00 | 0.81 | 0.74 | 90 | 1017.6 |
| 20260504151027 | 14 | 0 | 0.0 | 0.0 | 0.00 | 0.84 | 0.74 | 88 | 1018.5 |
| 20260504150528 | 14 | 0 | 0.0 | 0.0 | 0.00 | 0.84 | 0.74 | 87 | 1018.5 |
| 20260504141026 | 15 | 0 | 0.0 | 0.0 | 0.00 | 0.84 | 0.74 | 86 | 1018.3 |
| 20260504140526 | 15 | 0 | 0.0 | 0.0 | 0.00 | 0.84 | 0.74 | 86 | 1018.3 |
| 20260504130529 | 15 | 0 | 0.0 | 3.2 | 0.00 | 0.84 | 0.74 | 83 | 1018.1 |
| 20260504110527 | 16 | 103 | 0.0 | 4.8 | 0.00 | 0.84 | 0.74 | 79 | 1017.7 |
| 20260504100529 | 15 | 0 | 0.0 | 4.8 | 0.05 | 0.84 | 0.74 | 88 | 1017.8 |
| 20260504081541 | 17 | 91 | 1.6 | 6.4 | 0.00 | 0.76 | 0.69 | 77 | 1018.3 |
| 20260504081027 | 17 | 90 | 0.0 | 6.4 | 0.00 | 0.76 | 0.69 | 76 | 1018.3 |
| 20260504080532 | 17 | 0 | 1.6 | 4.8 | 0.00 | 0.76 | 0.69 | 78 | 1018.4 |
| 20260504050529 | 15 | 0 | 0.0 | 0.0 | 0.00 | 0.74 | 0.66 | 84 | 1018.8 |
| 20260504050113 | 15 | 0 | 0.0 | 0.0 | 0.00 | 0.74 | 0.66 | 84 | 1018.7 |
| 20260504045526 | 15 | 0 | 0.0 | 0.0 | 0.00 | 0.74 | 0.66 | 85 | 1018.7 |
| 20260504045032 | 15 | 0 | 0.0 | 0.0 | 0.00 | 0.74 | 0.66 | 85 | 1018.7 |
| 20260504044546 | 14 | 0 | 0.0 | 0.0 | 0.00 | 0.74 | 0.66 | 85 | 1018.7 |
| 20260504044029 | 14 | 0 | 0.0 | 0.0 | 0.00 | 0.74 | 0.66 | 86 | 1018.7 |
| 20260504043527 | 14 | 0 | 0.0 | 1.6 | 0.00 | 0.74 | 0.66 | 86 | 1018.7 |
| 20260504043052 | 14 | 0 | 0.0 | 1.6 | 0.00 | 0.74 | 0.66 | 87 | 1018.7 |
| 20260504042529 | 14 | 0 | 0.0 | 0.0 | 0.00 | 0.74 | 0.66 | 88 | 1018.7 |
| 20260504042032 | 14 | 0 | 0.0 | 0.0 | 0.00 | 0.74 | 0.66 | 88 | 1018.8 |
| 20260504041539 | 13 | 0 | 0.0 | 0.0 | 0.00 | 0.74 | 0.66 | 89 | 1018.7 |
| 20260504041026 | 13 | 0 | 0.0 | 0.0 | 0.00 | 0.74 | 0.66 | 89 | 1018.7 |
| 20260504040528 | 13 | 0 | 0.0 | 0.0 | 0.03 | 0.74 | 0.66 | 90 | 1018.7 |
| 20260504040047 | 13 | 0 | 0.0 | 0.0 | 0.03 | 0.74 | 0.66 | 90 | 1018.7 |
| 20260504035527 | 13 | 0 | 0.0 | 0.0 | 0.05 | 0.74 | 0.66 | 90 | 1018.7 |
| 20260504035032 | 13 | 0 | 0.0 | 0.0 | 0.05 | 0.74 | 0.66 | 91 | 1018.7 |
| 20260504034544 | 13 | 0 | 0.0 | 1.6 | 0.08 | 0.74 | 0.66 | 91 | 1018.7 |
| 20260504034030 | 13 | 0 | 0.0 | 1.6 | 0.08 | 0.74 | 0.66 | 91 | 1018.7 |
| 20260504033530 | 13 | 0 | 0.0 | 1.6 | 0.10 | 0.74 | 0.66 | 91 | 1018.6 |
| 20260504033051 | 13 | 0 | 0.0 | 0.0 | 0.13 | 0.74 | 0.66 | 91 | 1018.6 |
| 20260504032527 | 13 | 0 | 0.0 | 3.2 | 0.15 | 0.74 | 0.66 | 91 | 1018.6 |
| 20260504032027 | 13 | 0 | 0.0 | 3.2 | 0.15 | 0.74 | 0.66 | 91 | 1018.6 |
| 20260504031546 | 13 | 186 | 0.0 | 1.6 | 0.15 | 0.74 | 0.64 | 91 | 1018.5 |
| 20260504031028 | 13 | 0 | 0.0 | 0.0 | 0.18 | 0.74 | 0.64 | 91 | 1018.6 |
| 20260504030528 | 13 | 0 | 0.0 | 0.0 | 0.15 | 0.71 | 0.64 | 91 | 1018.6 |
| 20260504030047 | 12 | 0 | 0.0 | 3.2 | 0.18 | 0.71 | 0.64 | 91 | 1018.6 |
| 20260504025530 | 12 | 0 | 0.0 | 3.2 | 0.15 | 0.69 | 0.61 | 91 | 1018.7 |
| 20260504025031 | 12 | 0 | 0.0 | 0.0 | 0.15 | 0.69 | 0.61 | 91 | 1018.7 |
| 20260504024546 | 12 | 0 | 0.0 | 0.0 | 0.13 | 0.66 | 0.58 | 91 | 1018.6 |
| 20260504024026 | 12 | 0 | 0.0 | 0.0 | 0.13 | 0.64 | 0.56 | 91 | 1018.6 |
| 20260504023527 | 12 | 0 | 0.0 | 0.0 | 0.10 | 0.64 | 0.56 | 91 | 1018.6 |
| 20260504023047 | 12 | 0 | 0.0 | 0.0 | 0.10 | 0.61 | 0.53 | 91 | 1018.6 |
| 20260504022530 | 12 | 0 | 0.0 | 0.0 | 0.08 | 0.58 | 0.51 | 91 | 1018.5 |
| 20260504022027 | 12 | 0 | 0.0 | 0.0 | 0.08 | 0.56 | 0.48 | 91 | 1018.6 |
| 20260504021541 | 12 | 0 | 0.0 | 0.0 | 0.08 | 0.56 | 0.48 | 91 | 1018.5 |
| 20260504021026 | 12 | 0 | 0.0 | 0.0 | 0.08 | 0.56 | 0.46 | 91 | 1018.5 |
| 20260504020527 | 12 | 0 | 0.0 | 0.0 | 0.08 | 0.56 | 0.46 | 90 | 1018.5 |
| 20260504020051 | 12 | 0 | 0.0 | 3.2 | 0.08 | 0.53 | 0.46 | 90 | 1018.6 |
| 20260504015527 | 12 | 0 | 0.0 | 3.2 | 0.08 | 0.53 | 0.46 | 90 | 1018.5 |
| 20260504015028 | 12 | 0 | 0.0 | 0.0 | 0.10 | 0.53 | 0.46 | 90 | 1018.6 |
| 20260504014549 | 12 | 0 | 0.0 | 0.0 | 0.08 | 0.51 | 0.43 | 90 | 1018.5 |
| 20260504014027 | 12 | 0 | 0.0 | 0.0 | 0.10 | 0.51 | 0.43 | 90 | 1018.5 |
| 20260504013527 | 12 | 0 | 0.0 | 0.0 | 0.13 | 0.51 | 0.43 | 90 | 1018.5 |
| 20260504013050 | 12 | 0 | 0.0 | 0.0 | 0.10 | 0.48 | 0.41 | 90 | 1018.4 |
| 20260504012527 | 12 | 0 | 0.0 | 0.0 | 0.13 | 0.48 | 0.41 | 90 | 1018.4 |
| 20260504012027 | 12 | 0 | 0.0 | 3.2 | 0.10 | 0.46 | 0.38 | 90 | 1018.4 |
| 20260504011548 | 12 | 0 | 0.0 | 3.2 | 0.10 | 0.46 | 0.38 | 90 | 1018.4 |
| 20260504011030 | 12 | 0 | 0.0 | 3.2 | 0.10 | 0.46 | 0.36 | 90 | 1018.4 |
| 20260504010529 | 12 | 0 | 0.0 | 3.2 | 0.10 | 0.46 | 0.36 | 90 | 1018.3 |
| 20260504010046 | 12 | 180 | 0.0 | 1.6 | 0.08 | 0.43 | 0.36 | 90 | 1018.2 |
| 20260504005529 | 12 | 0 | 0.0 | 1.6 | 0.08 | 0.43 | 0.36 | 89 | 1018.2 |
| 20260504005029 | 12 | 0 | 0.0 | 3.2 | 0.08 | 0.41 | 0.33 | 89 | 1018.2 |
| 20260504004548 | 12 | 0 | 0.0 | 3.2 | 0.08 | 0.41 | 0.33 | 89 | 1018.1 |
| 20260504004031 | 12 | 0 | 0.0 | 1.6 | 0.05 | 0.38 | 0.30 | 89 | 1018.1 |
| 20260504003527 | 12 | 0 | 0.0 | 1.6 | 0.03 | 0.36 | 0.28 | 89 | 1018.2 |
| 20260504003041 | 12 | 0 | 0.0 | 0.0 | 0.03 | 0.36 | 0.28 | 89 | 1018.1 |
| 20260504002527 | 12 | 0 | 0.0 | 0.0 | 0.00 | 0.36 | 0.28 | 89 | 1018.1 |
| 20260504002030 | 12 | 0 | 0.0 | 3.2 | 0.00 | 0.36 | 0.28 | 89 | 1018.1 |
| 20260504001540 | 12 | 0 | 0.0 | 3.2 | 0.00 | 0.36 | 0.28 | 89 | 1018.0 |
| 20260504001030 | 12 | 0 | 0.0 | 3.2 | 0.00 | 0.33 | 0.25 | 89 | 1018.0 |
| 20260504000526 | 12 | 0 | 0.0 | 3.2 | 0.00 | 0.33 | 0.25 | 89 | 1018.0 |
| 20260504000051 | 12 | 0 | 0.0 | 3.2 | 0.00 | 0.33 | 0.25 | 89 | 1018.0 |
| 20260503235527 | 12 | 0 | 0.0 | 6.4 | 0.00 | 0.33 | 0.25 | 89 | 1018.0 |
| 20260503235027 | 12 | 160 | 0.0 | 6.4 | 0.00 | 0.33 | 0.25 | 89 | 1018.0 |
| 20260503234542 | 12 | 173 | 0.0 | 3.2 | 0.00 | 0.33 | 0.25 | 90 | 1017.9 |
| 20260503234027 | 12 | 0 | 0.0 | 3.2 | 0.00 | 0.33 | 0.25 | 90 | 1017.9 |
| 20260503233526 | 12 | 0 | 0.0 | 3.2 | 0.00 | 0.33 | 0.25 | 90 | 1017.9 |
| 20260503233041 | 12 | 0 | 0.0 | 3.2 | 0.00 | 0.33 | 0.25 | 90 | 1017.9 |
| 20260503232528 | 13 | 0 | 0.0 | 3.2 | 0.00 | 0.33 | 0.25 | 90 | 1017.9 |
| 20260503232028 | 13 | 0 | 0.0 | 3.2 | 0.00 | 0.33 | 0.25 | 90 | 1017.8 |
| 20260503231541 | 13 | 0 | 0.0 | 3.2 | 0.03 | 0.33 | 0.25 | 90 | 1017.8 |
| 20260503231029 | 13 | 0 | 0.0 | 0.0 | 0.00 | 0.30 | 0.23 | 90 | 1017.9 |
| 20260503230529 | 13 | 0 | 0.0 | 0.0 | 0.03 | 0.30 | 0.23 | 90 | 1017.9 |
| 20260503225530 | 13 | 0 | 0.0 | 0.0 | 0.05 | 0.30 | 0.23 | 90 | 1017.9 |
| 20260503225029 | 13 | 0 | 0.0 | 0.0 | 0.08 | 0.30 | 0.23 | 89 | 1017.9 |
| 20260503224545 | 13 | 0 | 0.0 | 0.0 | 0.08 | 0.30 | 0.23 | 89 | 1017.9 |
| 20260503224027 | 13 | 0 | 0.0 | 0.0 | 0.08 | 0.30 | 0.23 | 89 | 1017.8 |
| 20260503223528 | 13 | 0 | 0.0 | 0.0 | 0.08 | 0.30 | 0.23 | 89 | 1017.8 |
| 20260503223042 | 13 | 0 | 0.0 | 0.0 | 0.08 | 0.30 | 0.23 | 89 | 1017.8 |
| 20260503222531 | 13 | 0 | 0.0 | 0.0 | 0.08 | 0.30 | 0.23 | 89 | 1017.9 |
| 20260503222032 | 13 | 0 | 0.0 | 0.0 | 0.08 | 0.30 | 0.23 | 89 | 1017.7 |
| 20260503221539 | 13 | 0 | 0.0 | 0.0 | 0.08 | 0.28 | 0.20 | 89 | 1017.7 |
| 20260503221030 | 13 | 0 | 0.0 | 0.0 | 0.08 | 0.28 | 0.20 | 89 | 1017.6 |
| 20260503220527 | 13 | 0 | 0.0 | 0.0 | 0.08 | 0.28 | 0.18 | 89 | 1017.5 |
| 20260503220049 | 13 | 0 | 0.0 | 0.0 | 0.05 | 0.25 | 0.18 | 89 | 1017.6 |
| 20260503215526 | 13 | 0 | 0.0 | 0.0 | 0.08 | 0.25 | 0.18 | 89 | 1017.6 |